sat.trackr.live / text

‹ back to catalog

STARLINK-32800

NORAD 62743 · 2025-014J

PAYLOAD ACTIVE UNKNOWN

§ Identity

Operator
Country
US
Launch date
2025-01-21
Launch site
AFETR
Launch vehicle
Mass (kg)
RCS (m²)

Purposes: comms

External: N2YO · Heavens-Above · Gunter

§ Orbital elements

Epoch: 2026-09-21T00:09:19.320768Z

Period
94.27 min
Inclination
42.9997°
Eccentricity
0.0001425
Mean motion
15.27562410 rev/d
Perigee alt
482.1 km
Apogee alt
484.1 km
Semi-major
6,861.2 km
B*
1.4559e-4
RAAN
138.6834°
Arg perigee
273.6768°
Mean anomaly
86.3921°
Rev number
9,304

§ Raw data

STARLINK-328001 62743U 25014J   26264.00647362  .00003744  00000+0  14559-3 0  99962 62743  42.9997 138.6834 0001425 273.6768  86.3921 15.27562410 93046

JSON: /api/v1/satellites/62743 · /tle

For live sub-satellite position, see the globe view (requires WebGL).

§ Visibility from observer

Set your observer location to see the next 7 days of passes ≥ 10°. The values pass through the URL so the page stays shareable.

No JS? Fill the form by hand. The geolocation button needs JavaScript.